Regional Weather Roundup
Issued by NWS

Home | Current Version | Previous Version | Graphics & Text | Print | Product List | Glossary On
Versions: 1 2 3 4 5 6 7 8 9 10 11 12 13 14 15 16 17 18 19 20 21 22 23 24 25 26 27 28 29 30 31 32 33 34 35 36 37 38 39 40 41 42 43 44 45 46 47 48 49 50
000
ASUS43 KDMX 141406
RWRIA

WEATHER ROUNDUP FOR IOWA
NATIONAL WEATHER SERVICE DES MOINES IA
800 AM CST THU DEC 14 2017

NOTE: "FAIR" INDICATES FEW OR NO CLOUDS BELOW 12,000 FEET WITH NO
SIGNIFICANT WEATHER AND/OR OBSTRUCTIONS TO VISIBILITY.

* - THESE STATIONS ARE NOT NWS STATIONS...THUS NOT UNDER NWS
QUALITY CONTROL.  THEY ALSO DO NOT REPORT WEATHER SUCH
AS PRECIPITATION OR FOG.

IAZ001>003-012>014-020>022-031>034-043>046-141500-
   NORTHWEST IOWA

CITY           SKY/WX    TMP DP  RH WIND       PRES   REMARKS
CARROLL *      CLOUDY    27  19  74 NW7       30.05R WCI  19
CHEROKEE *     CLOUDY    25  22  90 CALM      30.04S
DENISON *      CLOUDY    27  21  80 E5        30.06R WCI  21
LE MARS *      CLOUDY    28  25  86 E5        30.03F WCI  23
ORANGE CITY *  MIX PCPN  27  25  93 S3        30.02S
SHELDON *      CLOUDY    23  23 100 S6        30.01R WCI  16
SIOUX CITY     CLOUDY    29  24  82 SE8       30.04R WCI  21
SPENCER        CLOUDY    23  18  81 NE3       30.03S
STORM LAKE *   CLOUDY    23  19  86 CALM      30.03R
$$

IAZ055>058-069>071-079>083-090>094-141500-
   SOUTHWEST IOWA

CITY           SKY/WX    TMP DP  RH WIND       PRES   REMARKS
ATLANTIC *     CLOUDY    28  23  80 NE5       30.06R WCI  23
AUDUBON *      CLOUDY    27  21  80 CALM      30.05R
CLARINDA *     CLOUDY    32  25  74 CALM        N/A
COUNCIL BLFS * CLOUDY    32  32 100 CALM      30.05R
CRESTON *      CLOUDY    27  21  80 N6        30.06R WCI  20
HARLAN  *      CLOUDY    28  25  86 CALM      30.09R
LAMONI         CLOUDY    28  19  69 N6        30.05R WCI  22
RED OAK *      CLOUDY    30  25  80 CALM      30.06S
SHENANDOAH *   CLOUDY    32  27  80 CALM      30.08R
$$

IAZ047>049-059>061-072>074-084-141500-
   CENTRAL IOWA

CITY           SKY/WX    TMP DP  RH WIND       PRES   REMARKS
AMES           CLOUDY    23  17  78 N5        30.06R WCI  17
ANKENY *       CLOUDY    25  16  68 N12       30.08R WCI  14
BOONE *        CLOUDY    23  18  80 NE8       30.03F WCI  14
CHARITON *     CLOUDY    25  18  74 N8        30.05R WCI  16
DES MOINES     CLOUDY    26  17  68 NE6       30.07R WCI  19
GRINNELL*      CLOUDY    23  17  79 E5        30.07R WCI  16
KNOXVILLE *    CLOUDY    25  16  68 N8        30.05R WCI  16
MARSHALLTOWN   CLOUDY    23  16  74 N5        30.05R WCI  17
NEWTON *       CLOUDY    25  16  68 N5        30.06R WCI  19
PELLA *        CLOUDY    26  17  69 N6        30.08R WCI  19
PERRY *        CLOUDY    24  17  74 CALM      30.06R
$$

IAZ004>006-015-016-023>025-035-036-141500-
   NORTH CENTRAL IOWA

CITY           SKY/WX    TMP DP  RH WIND       PRES   REMARKS
ALGONA *       CLOUDY    19  19 100 CALM      30.02F
CLARION *      CLOUDY    18  18 100 CALM      30.04S
ESTHERVILLE    CLOUDY    21  17  84 N7        30.02R WCI  12
MASON CITY     CLOUDY    16  13  88 CALM      30.05R
FOREST CITY *    N/A     14  12  92 CALM      30.04S
WEBSTER CITY * CLOUDY    21  18  86 NE5       30.03S WCI  15
IOWA FALLS *   CLOUDY    23  17  79 E5        30.05S WCI  17
$$

IAZ007>011-017>019-026>030-037>042-050>054-066-141500-
   NORTHEAST IOWA

CITY           SKY/WX    TMP DP  RH WIND       PRES   REMARKS
CEDAR RAPIDS   CLOUDY    13  10  88 NW7       30.06R WCI   3
CHARLES CITY * CLOUDY    12  12 100 SW5       30.05R WCI   4
CLINTON *      CLOUDY    17  11  77 NE5       30.09R WCI  10
DECORAH *      CLOUDY    10   9  92 CALM      30.03R
DUBUQUE        CLEAR     15  12  88 N3        30.04S
MONTICELLO *   CLOUDY    16  12  86 CALM      30.06R
OELWEIN *      CLOUDY    10  10 100 CALM      30.05S
WATERLOO       CLOUDY    17  12  80 CALM      30.06S
$$

IAZ064-065-067-068-078-141500-
   EAST CENTRAL IOWA

CITY           SKY/WX    TMP DP  RH WIND       PRES   REMARKS
DAVENPORT      CLOUDY    22  14  71 CALM      30.09R
IOWA CITY      CLOUDY    18  13  80 NW3       30.10R
MT. PLEASANT * CLOUDY    19  14  82 NW5       30.08R WCI  12
MUSCATINE *    CLOUDY    18  12  79 CALM      30.09R
QUAD CITIES    CLOUDY    24  16  71 CALM      30.07R
$$

IAZ062-063-075>077-085>089-095>099-141500-
   SOUTHEAST IOWA

CITY           SKY/WX    TMP DP  RH WIND       PRES   REMARKS
BURLINGTON     CLOUDY    21  16  81 NW5       30.06R WCI  15
FAIRFIELD *    CLOUDY    21  14  73 N8        30.07R WCI  12
FORT MADISON * MOCLDY    19  16  86 CALM      30.07R
KEOKUK *       CLOUDY    23  18  80 N5        30.07R WCI  17
OSKALOOSA *    CLOUDY    23  16  75 NE5       30.07R WCI  17
OTTUMWA        CLOUDY    24  15  68 NE6       30.06R WCI  17
WASHINGTON *   CLOUDY    16  12  86 NW5       30.09R WCI   9
$$

ABBREVIATIONS USED IN REMARKS
   TC - TEMPERATURES IN CELSIUS
  WCI - WIND CHILL INDEX
   HX - HEAT INDEX
  VSB - VISIBILITY
$$





USA.gov is the U.S. government's official web portal to all federal, state and local government web resources and services.